Location: Zengebe
(1.4833°N, 32.5167°E)
Time: 23:31:16
(UTC+00:00)

CZ-3A R/B - Pass Details

Date: 07 June 2020
Orbit: 380 x 34990 km, 25.1° (Epoch: 10 July)

Event Time Altitude Azimuth Distance (km) Brightness Sun altitude
Exits shadow 02:40:17 26° 222° (SW) 1,005 2.6 -15.2°
Maximum altitude 02:41:51 62° 149° (SSE) 719 2.4 -14.8°
Drops below altitude 10° 02:49:56 10° 68° (ENE) 4,409 7.9 -13.0°
Sets 02:58:01 0° 66° (ENE) 8,038 10.0 -11.1°
